Location: Ash Swamp
(41.5170°N, 74.6157°W)
Time: 02:36:18
(UTC+00:00)

Aureole 2 Rocket - Pass Details

Date: 14 July 2020
Orbit: 303 x 428 km, 73.9° (Epoch: 14 August)

Event Time Altitude Azimuth Distance (km) Brightness Sun altitude
Rises 03:01:54 0° 335° (NNW) 2,202 7.5 -20.8°
Reaches altitude 10° 03:03:53 10° 330° (NNW) 1,374 6.0 -21.0°
Enters shadow 03:06:24 46° 284° (WNW) 526 2.9 -21.2°
